Location: Góry Miechowskie
(50.3599°N, 20.1803°E)
Time: 21:15:46
(UTC+00:00)

BREEZE-M R/B - Visible Passes

Search period start: 19 September 2024 00:00
Search period end: 29 September 2024 00:00
Orbit: 1088 x 14769 km, 50.7° (Epoch: 19 September)

Date Brightness Start Highest point End Pass type
(mag) Time Alt. Az. Time Alt. Az. Time Alt. Az.
19 Sep 9.7 04:10:04 10° SE 05:06:34 22° E 05:35:22 10° ENE visible
20 Sep 9.8 03:55:39 10° ESE 04:44:52 19° E 05:11:56 10° ENE visible
21 Sep 10.0 03:42:24 10° ESE 04:23:19 17° E 04:47:53 10° ENE visible
22 Sep 10.2 03:30:45 10° ESE 04:01:56 14° E 04:22:45 10° ENE visible
23 Sep 10.4 03:22:07 10° E 03:40:44 12° E 03:55:07 10° ENE visible
24 Sep 7.4 18:25:35 10° WNW 18:28:53 11° W 18:31:34 10° WSW visible
25 Sep 7.4 18:01:08 10° WNW 18:07:58 14° W 18:12:32 10° SW visible
26 Sep 7.3 17:37:29 10° WNW 17:47:01 18° W 17:52:35 10° SW visible
27 Sep 7.1 17:14:02 10° WNW 17:26:02 22° WSW 17:32:17 10° SSW visible
28 Sep 7.0 16:50:40 10° WNW 17:05:01 26° WSW 17:11:45 10° SSW visible
